Terug naar catalogus

SL-12 DEB

LostHEO
NORAD 41700·DEBRIS·🇷🇺 Russia

Gelanceerd Mar 1, 2010 vanaf Baikonur Cosmodrome

Loading…

Volgende Passages (komende 24 uur)

TLE

VerouderdSource: Space-Track

Epoch: May 3, 2025, 13:28 UTC

1 41700U 10007S   25123.56113341  .00000170  00000-0  16834-2 0  9999
2 41700  64.5184  64.8316 5701930 336.9489   5.2740  4.13348308161513

Volg SL-12 DEB in realtime met AllMySat

Download on the App Store